COSMOS 970 DEB, 65010

Orbit data source: Space-Track

COSMOS 970 DEB, 65010 is space debris in LEO originally from a launch on Wed, 21 Dec 1977 UTC launched from the Tyuratam Missile And Space Complex (TTMTR). Debris objects in space refer to the collection of defunct objects orbiting the Earth. Examples of debris include non-operational satellites, rocket bodies, and fragments generated from explosions, collisions, or faulty payload assembly.

Loading next visibility...
Identifier
65010, 1977-121DX
Orbit
LEO
Country
Flag of CISCIS
Related business
Manufacturer
Unknown
Mission
Spacecraft
Bus & Motor
Unknown
Mass
Unknown
Launch date (UTC)
1977-12-21 (48 years ago)
Launch vehicle
Unknown
Launch site
Tyuratam Missile And Space Complex (TTMTR)
Object type
Payload
Rocket body
Debris
Shape & HBR
Unknown shape, 0.1 m
Radar Cross Section
Small (<0.1 m²)

Expand to show TLE details & history
Last TLE update: 4 days ago

TLE from 4 days ago
0 COSMOS 970 DEB
1 65010U 77121DX  26168.21173304 -.00000015  00000-0  75896-4 0  9990
2 65010  65.8257 341.0801 0146267 274.5047 267.4199 13.62711128 95766
Epoch: 2026-06-17T05:04Z
TLE epoch observation values (Epoch: 2026-06-17T05:04:53.734Z)
Latitude
-0.32797°
Longitude
179.53°
Altitude
1,034.327 km
Speed
7.332 km/s
True Right ascension
10h 44m 54s
True Declination
0° 19' 34"
Sunlit
Object was in daylight at epoch
Visualization orbit readout
Latitude
Unknown
Longitude
Unknown
Altitude
Unknown
Speed
Unknown
Apparent Right ascension
Unknown
Apparent Declination
Unknown
Sunlit
N/A
Visualization observer readout
Local Sidereal Time
07:12:11
Azimuth
Unknown
Elevation
Unknown
Doppler factor
Unknown
Orbital elements
Apogee altitude
1,132.656 km
Perigee altitude
916.108 km
Semi-major axis
7,402.519 km
Eccentricity
0.01463
Inclination
65.8257°
RAAN
341.0801°
Arg. of periapsis
274.5047°
True anomaly
265.74712°
Mean anomaly
267.4199°
Eccentric anomaly
266.58334°
Mean motion
3.4078 °/min
Orbital period
105.64 mins
BSTAR
0.000075896
Loading maneuver chart data...
Computing Atmospheric mass density...
Loading historical data...
Loading historical data...
Loading historical data...
Loading historical data...
Loading historical data...
Loading historical data...
Loading historical data...

Documentation

Showing up to 5 results
|